Time,TemperatureF,DewpointF,PressureIn,WindDirection,WindDirectionDegrees,WindSpeedMPH,WindSpeedGustMPH,Humidity,HourlyPrecipIn,Conditions,Clouds,dailyrainin,SoftwareType,DateUTC
2013-03-10 00:00:00,28.8,26.8,30.36,NNE,19,2.0,4.0,92,0.00,,,0.20,VWS V14.01,2013-03-10 05:00:00,
2013-03-10 00:05:00,29.4,27.1,30.36,NNE,19,2.0,2.0,91,0.00,,,0.00,VWS V14.01,2013-03-10 05:05:00,
2013-03-10 00:10:00,29.7,27.4,30.37,NE,51,2.0,4.0,91,0.00,,,0.00,VWS V14.01,2013-03-10 05:10:00,
2013-03-10 00:15:00,29.9,27.1,30.37,NNE,32,2.0,4.0,89,0.00,,,0.00,VWS V14.01,2013-03-10 05:15:00,
2013-03-10 00:20:00,29.5,26.7,30.37,NNE,24,2.0,4.0,89,0.00,,,0.00,VWS V14.01,2013-03-10 05:20:00,
2013-03-10 00:25:00,29.6,27.0,30.37,NNE,24,4.0,4.0,90,0.00,,,0.00,VWS V14.01,2013-03-10 05:25:00,
2013-03-10 00:30:00,29.9,27.1,30.37,ENE,59,3.0,4.0,89,0.00,,,0.00,VWS V14.01,2013-03-10 05:30:00,
2013-03-10 00:35:00,30.1,27.3,30.37,ENE,59,3.0,3.0,89,0.00,,,0.00,VWS V14.01,2013-03-10 05:35:00,
2013-03-10 00:40:00,30.0,27.2,30.37,ENE,59,2.0,3.0,89,0.00,,,0.00,VWS V14.01,2013-03-10 05:40:00,
2013-03-10 00:45:00,30.2,27.4,30.37,ENE,59,3.0,4.0,89,0.00,,,0.00,VWS V14.01,2013-03-10 05:45:00,
2013-03-10 00:50:00,30.2,27.4,30.37,ENE,59,4.0,4.0,89,0.00,,,0.00,VWS V14.01,2013-03-10 05:50:00,
2013-03-10 00:55:00,30.2,27.4,30.37,ENE,59,3.0,4.0,89,0.00,,,0.00,VWS V14.01,2013-03-10 05:55:00,
2013-03-10 00:56:00,30.3,27.7,30.37,NE,35,2.0,4.0,90,0.00,,,0.00,VWS V14.01,2013-03-10 05:56:00,
2013-03-10 00:57:00,30.3,27.7,30.38,NE,35,2.0,4.0,90,0.00,,,0.00,VWS V14.01,2013-03-10 05:57:00,
2013-03-10 00:58:00,30.3,27.7,30.38,NE,36,3.0,4.0,90,0.00,,,0.00,VWS V14.01,2013-03-10 05:58:00,
2013-03-10 01:00:00,30.3,27.5,30.37,NE,42,2.0,4.0,89,0.00,,,0.00,VWS V14.01,2013-03-10 06:00:00,
2013-03-10 01:05:00,30.3,27.5,30.37,NE,50,3.0,4.0,89,0.00,,,0.00,VWS V14.01,2013-03-10 06:05:00,
2013-03-10 01:10:00,30.3,27.5,30.38,NE,51,2.0,4.0,89,0.00,,,0.00,VWS V14.01,2013-03-10 06:10:00,
2013-03-10 01:15:00,30.3,27.5,30.38,NE,34,3.0,5.0,89,0.00,,,0.00,VWS V14.01,2013-03-10 06:15:00,
2013-03-10 01:20:00,30.3,27.7,30.37,NE,51,2.0,5.0,90,0.00,,,0.00,VWS V14.01,2013-03-10 06:20:00,
2013-03-10 01:25:00,30.4,27.8,30.38,NE,44,2.0,5.0,90,0.00,,,0.00,VWS V14.01,2013-03-10 06:25:00,
2013-03-10 01:30:00,30.5,27.9,30.38,NE,53,3.0,5.0,90,0.00,,,0.00,VWS V14.01,2013-03-10 06:30:00,
2013-03-10 01:35:00,30.5,27.9,30.38,NE,53,2.0,2.0,90,0.00,,,0.00,VWS V14.01,2013-03-10 06:35:00,
2013-03-10 01:40:00,30.5,27.9,30.37,NE,46,1.0,4.0,90,0.00,,,0.00,VWS V14.01,2013-03-10 06:40:00,
2013-03-10 01:45:00,30.6,28.0,30.37,NE,46,2.0,4.0,90,0.00,,,0.00,VWS V14.01,2013-03-10 06:45:00,
2013-03-10 01:50:00,30.6,28.0,30.38,NE,46,2.0,4.0,90,0.00,,,0.00,VWS V14.01,2013-03-10 06:50:00,
2013-03-10 01:55:00,30.4,27.8,30.38,NE,49,2.0,4.0,90,0.00,,,0.00,VWS V14.01,2013-03-10 06:55:00,
2013-03-10 03:02:00,30.3,27.7,30.38,NE,35,2.0,4.0,90,0.00,,,0.00,VWS V14.01,2013-03-10 07:02:00,
2013-03-10 03:07:00,30.2,27.6,30.38,NE,35,1.0,3.0,90,0.00,,,0.00,VWS V14.01,2013-03-10 07:07:00,
2013-03-10 03:12:00,29.9,27.3,30.37,NE,35,1.0,3.0,90,0.00,,,0.00,VWS V14.01,2013-03-10 07:12:00,
2013-03-10 03:17:00,29.8,27.2,30.37,ENE,57,0.0,3.0,90,0.00,,,0.00,VWS V14.01,2013-03-10 07:17:00,
2013-03-10 03:22:00,29.6,27.0,30.37,NNE,27,2.0,3.0,90,0.00,,,0.00,VWS V14.01,2013-03-10 07:22:00,
2013-03-10 03:27:00,29.4,27.1,30.37,NNE,30,1.0,5.0,91,0.00,,,0.00,VWS V14.01,2013-03-10 07:27:00,
2013-03-10 03:32:00,29.1,26.8,30.37,NNE,33,1.0,5.0,91,0.00,,,0.00,VWS V14.01,2013-03-10 07:32:00,
2013-03-10 03:37:00,29.2,26.9,30.37,NNE,29,1.0,5.0,91,0.00,,,0.00,VWS V14.01,2013-03-10 07:37:00,
2013-03-10 03:42:00,28.9,26.6,30.37,NE,52,3.0,5.0,91,0.00,,,0.00,VWS V14.01,2013-03-10 07:42:00,
2013-03-10 03:47:00,28.9,26.6,30.37,NE,40,1.0,5.0,91,0.00,,,0.00,VWS V14.01,2013-03-10 07:47:00,
2013-03-10 03:52:00,29.2,26.9,30.37,NE,40,2.0,5.0,91,0.00,,,0.00,VWS V14.01,2013-03-10 07:52:00,
2013-03-10 03:57:00,29.6,27.3,30.36,NE,42,2.0,5.0,91,0.00,,,0.00,VWS V14.01,2013-03-10 07:57:00,
2013-03-10 04:02:00,29.5,27.2,30.36,NE,37,3.0,5.0,91,0.00,,,0.00,VWS V14.01,2013-03-10 08:02:00,
2013-03-10 04:07:00,29.4,27.1,30.36,NE,37,2.0,3.0,91,0.00,,,0.00,VWS V14.01,2013-03-10 08:07:00,
2013-03-10 04:12:00,29.4,27.1,30.36,NE,37,2.0,3.0,91,0.00,,,0.00,VWS V14.01,2013-03-10 08:12:00,
2013-03-10 04:17:00,29.3,27.0,30.37,NE,43,2.0,4.0,91,0.00,,,0.00,VWS V14.01,2013-03-10 08:17:00,
2013-03-10 04:22:00,29.3,27.0,30.37,NE,55,3.0,4.0,91,0.00,,,0.00,VWS V14.01,2013-03-10 08:22:00,
2013-03-10 04:27:00,29.2,26.6,30.37,NE,50,2.0,4.0,90,0.00,,,0.00,VWS V14.01,2013-03-10 08:27:00,
2013-03-10 04:32:00,29.2,26.6,30.37,ENE,67,3.0,5.0,90,0.00,,,0.00,VWS V14.01,2013-03-10 08:32:00,
2013-03-10 04:37:00,29.2,26.9,30.37,NE,51,3.0,3.0,91,0.00,,,0.00,VWS V14.01,2013-03-10 08:37:00,
2013-03-10 04:42:00,29.2,26.9,30.37,ENE,63,4.0,4.0,91,0.00,,,0.00,VWS V14.01,2013-03-10 08:42:00,
2013-03-10 04:47:00,29.3,27.0,30.37,NE,51,3.0,4.0,91,0.00,,,0.00,VWS V14.01,2013-03-10 08:47:00,
2013-03-10 04:52:00,29.3,27.0,30.37,NNE,25,2.0,4.0,91,0.00,,,0.00,VWS V14.01,2013-03-10 08:52:00,
2013-03-10 04:57:00,29.1,26.8,30.38,NE,46,4.0,4.0,91,0.00,,,0.00,VWS V14.01,2013-03-10 08:57:00,
2013-03-10 05:02:00,29.1,26.8,30.37,NE,55,3.0,5.0,91,0.00,,,0.00,VWS V14.01,2013-03-10 09:02:00,
2013-03-10 05:07:00,29.2,26.9,30.38,NE,51,3.0,3.0,91,0.00,,,0.00,VWS V14.01,2013-03-10 09:07:00,
2013-03-10 05:12:00,29.2,26.9,30.38,NE,49,2.0,4.0,91,0.00,,,0.00,VWS V14.01,2013-03-10 09:12:00,
2013-03-10 05:17:00,29.2,26.9,30.38,NE,45,2.0,4.0,91,0.00,,,0.00,VWS V14.01,2013-03-10 09:17:00,
2013-03-10 05:22:00,29.3,27.0,30.38,ENE,74,2.0,5.0,91,0.00,,,0.00,VWS V14.01,2013-03-10 09:22:00,
2013-03-10 05:27:00,29.3,27.3,30.38,ENE,63,4.0,5.0,92,0.00,,,0.00,VWS V14.01,2013-03-10 09:27:00,
2013-03-10 05:32:00,29.4,27.1,30.38,ENE,59,2.0,5.0,91,0.00,,,0.00,VWS V14.01,2013-03-10 09:32:00,
2013-03-10 05:37:00,29.4,27.1,30.38,ENE,59,3.0,4.0,91,0.00,,,0.00,VWS V14.01,2013-03-10 09:37:00,
2013-03-10 05:42:00,29.2,26.9,30.38,ENE,59,3.0,4.0,91,0.00,,,0.00,VWS V14.01,2013-03-10 09:42:00,
2013-03-10 05:47:00,29.1,26.8,30.38,ENE,59,3.0,4.0,91,0.00,,,0.00,VWS V14.01,2013-03-10 09:47:00,
2013-03-10 05:52:00,29.0,26.7,30.38,ENE,59,3.0,4.0,91,0.00,,,0.00,VWS V14.01,2013-03-10 09:52:00,
2013-03-10 05:57:00,28.8,26.5,30.38,ENE,59,3.0,4.0,91,0.00,,,0.00,VWS V14.01,2013-03-10 09:57:00,
2013-03-10 06:02:00,28.7,26.4,30.38,ENE,59,3.0,4.0,91,0.00,,,0.00,VWS V14.01,2013-03-10 10:02:00,
2013-03-10 06:07:00,28.7,26.4,30.38,ENE,59,3.0,4.0,91,0.00,,,0.00,VWS V14.01,2013-03-10 10:07:00,
2013-03-10 06:12:00,28.8,26.8,30.37,NE,51,3.0,4.0,92,0.00,,,0.00,VWS V14.01,2013-03-10 10:12:00,
2013-03-10 06:17:00,28.7,26.7,30.37,NE,54,3.0,4.0,92,0.00,,,0.00,VWS V14.01,2013-03-10 10:17:00,
2013-03-10 06:22:00,28.7,26.7,30.37,NE,54,3.0,4.0,92,0.00,,,0.00,VWS V14.01,2013-03-10 10:22:00,
2013-03-10 06:27:00,28.8,26.8,30.38,NE,54,3.0,4.0,92,0.00,,,0.00,VWS V14.01,2013-03-10 10:27:00,
2013-03-10 06:32:00,28.8,26.8,30.37,NE,38,4.0,5.0,92,0.00,,,0.00,VWS V14.01,2013-03-10 10:32:00,
2013-03-10 06:37:00,28.9,26.9,30.38,NE,47,3.0,4.0,92,0.00,,,0.00,VWS V14.01,2013-03-10 10:37:00,
2013-03-10 06:42:00,28.9,26.6,30.38,NE,49,3.0,4.0,91,0.00,,,0.00,VWS V14.01,2013-03-10 10:42:00,
2013-03-10 06:47:00,29.0,26.7,30.38,NE,34,2.0,4.0,91,0.00,,,0.00,VWS V14.01,2013-03-10 10:47:00,
2013-03-10 06:52:00,29.1,26.8,30.38,ENE,57,2.0,4.0,91,0.00,,,0.00,VWS V14.01,2013-03-10 10:52:00,
2013-03-10 06:57:00,29.0,26.7,30.39,NE,45,3.0,4.0,91,0.00,,,0.00,VWS V14.01,2013-03-10 10:57:00,
2013-03-10 07:02:00,28.9,26.6,30.39,NE,38,3.0,4.0,91,0.00,,,0.00,VWS V14.01,2013-03-10 11:02:00,
2013-03-10 07:07:00,29.0,26.7,30.39,NE,44,2.0,4.0,91,0.00,,,0.00,VWS V14.01,2013-03-10 11:07:00,
2013-03-10 07:12:00,28.9,26.6,30.39,NE,40,2.0,7.0,91,0.00,,,0.00,VWS V14.01,2013-03-10 11:12:00,
2013-03-10 07:17:00,28.9,26.6,30.39,NE,42,2.0,7.0,91,0.00,,,0.00,VWS V14.01,2013-03-10 11:17:00,
2013-03-10 07:22:00,29.1,26.8,30.39,NE,56,3.0,7.0,91,0.00,,,0.00,VWS V14.01,2013-03-10 11:22:00,
2013-03-10 07:27:00,29.1,26.8,30.39,NNE,32,2.0,7.0,91,0.00,,,0.00,VWS V14.01,2013-03-10 11:27:00,
2013-03-10 07:32:00,29.3,26.7,30.40,NE,46,3.0,7.0,90,0.00,,,0.00,VWS V14.01,2013-03-10 11:32:00,
2013-03-10 07:37:00,29.4,26.8,30.40,NNE,28,2.0,3.0,90,0.00,,,0.00,VWS V14.01,2013-03-10 11:37:00,
2013-03-10 07:42:00,29.4,26.8,30.40,NE,36,2.0,3.0,90,0.00,,,0.00,VWS V14.01,2013-03-10 11:42:00,
2013-03-10 07:47:00,29.6,27.0,30.40,ENE,59,3.0,5.0,90,0.00,,,0.00,VWS V14.01,2013-03-10 11:47:00,
2013-03-10 07:52:00,29.7,26.9,30.41,NE,34,3.0,5.0,89,0.00,,,0.00,VWS V14.01,2013-03-10 11:52:00,
2013-03-10 07:57:00,29.9,27.1,30.41,NE,54,2.0,5.0,89,0.00,,,0.00,VWS V14.01,2013-03-10 11:57:00,
2013-03-10 08:02:00,30.0,27.2,30.41,NE,54,1.0,5.0,89,0.00,,,0.00,VWS V14.01,2013-03-10 12:02:00,
2013-03-10 08:07:00,30.1,27.3,30.41,NE,36,3.0,4.0,89,0.00,,,0.00,VWS V14.01,2013-03-10 12:07:00,
2013-03-10 08:12:00,30.3,27.2,30.40,NE,36,3.0,4.0,88,0.00,,,0.00,VWS V14.01,2013-03-10 12:12:00,
2013-03-10 08:17:00,30.5,27.1,30.41,NE,55,2.0,4.0,87,0.00,,,0.00,VWS V14.01,2013-03-10 12:17:00,
2013-03-10 08:22:00,30.6,27.2,30.40,ENE,68,4.0,5.0,87,0.00,,,0.00,VWS V14.01,2013-03-10 12:22:00,
2013-03-10 08:27:00,30.8,27.4,30.40,ENE,68,2.0,5.0,87,0.00,,,0.00,VWS V14.01,2013-03-10 12:27:00,
2013-03-10 08:32:00,30.9,27.2,30.40,NE,55,3.0,5.0,86,0.00,,,0.00,VWS V14.01,2013-03-10 12:32:00,
2013-03-10 08:37:00,31.1,27.4,30.41,North,350,3.0,4.0,86,0.00,,,0.00,VWS V14.01,2013-03-10 12:37:00,
2013-03-10 08:42:00,31.5,27.8,30.41,NE,49,2.0,4.0,86,0.00,,,0.00,VWS V14.01,2013-03-10 12:42:00,
2013-03-10 08:47:00,31.8,28.1,30.41,ENE,69,4.0,4.0,86,0.01,,,0.01,VWS V14.01,2013-03-10 12:47:00,
2013-03-10 08:52:00,31.9,28.2,30.41,NE,51,2.0,4.0,86,0.01,,,0.01,VWS V14.01,2013-03-10 12:52:00,
2013-03-10 08:57:00,32.1,28.4,30.41,NE,50,4.0,5.0,86,0.01,,,0.01,VWS V14.01,2013-03-10 12:57:00,
2013-03-10 09:02:00,32.3,28.3,30.42,East,82,5.0,7.0,85,0.01,,,0.01,VWS V14.01,2013-03-10 13:02:00,
2013-03-10 09:07:00,32.5,28.5,30.42,NE,49,3.0,4.0,85,0.01,,,0.01,VWS V14.01,2013-03-10 13:07:00,
2013-03-10 09:12:00,32.8,28.8,30.42,ENE,64,4.0,8.0,85,0.01,,,0.01,VWS V14.01,2013-03-10 13:12:00,
2013-03-10 09:17:00,32.9,28.9,30.42,NE,44,1.0,8.0,85,0.01,,,0.01,VWS V14.01,2013-03-10 13:17:00,
2013-03-10 09:22:00,33.3,29.0,30.42,NE,51,3.0,8.0,84,0.01,,,0.01,VWS V14.01,2013-03-10 13:22:00,
2013-03-10 09:27:00,33.4,29.1,30.41,ENE,78,3.0,8.0,84,0.01,,,0.01,VWS V14.01,2013-03-10 13:27:00,
2013-03-10 09:32:00,33.6,29.3,30.41,ENE,65,3.0,8.0,84,0.01,,,0.01,VWS V14.01,2013-03-10 13:32:00,
2013-03-10 09:37:00,34.3,29.7,30.42,East,94,6.0,6.0,83,0.01,,,0.01,VWS V14.01,2013-03-10 13:37:00,
2013-03-10 09:42:00,34.2,29.6,30.41,ENE,66,5.0,6.0,83,0.01,,,0.01,VWS V14.01,2013-03-10 13:42:00,
2013-03-10 09:47:00,34.2,29.6,30.41,NE,56,5.0,8.0,83,0.01,,,0.01,VWS V14.01,2013-03-10 13:47:00,
2013-03-10 09:52:00,34.2,29.6,30.41,ESE,107,3.0,8.0,83,0.01,,,0.01,VWS V14.01,2013-03-10 13:52:00,
2013-03-10 09:57:00,34.3,29.7,30.41,ENE,67,4.0,8.0,83,0.01,,,0.01,VWS V14.01,2013-03-10 13:57:00,
2013-03-10 10:02:00,34.3,29.7,30.41,East,84,3.0,8.0,83,0.01,,,0.01,VWS V14.01,2013-03-10 14:02:00,
2013-03-10 10:07:00,34.6,30.0,30.42,East,79,5.0,5.0,83,0.00,,,0.01,VWS V14.01,2013-03-10 14:07:00,
2013-03-10 10:12:00,34.6,30.0,30.42,East,88,5.0,7.0,83,0.00,,,0.01,VWS V14.01,2013-03-10 14:12:00,
2013-03-10 10:17:00,34.8,29.9,30.42,ENE,68,3.0,7.0,82,0.00,,,0.01,VWS V14.01,2013-03-10 14:17:00,
2013-03-10 10:22:00,35.4,30.2,30.41,ENE,66,2.0,7.0,81,0.00,,,0.01,VWS V14.01,2013-03-10 14:22:00,
2013-03-10 10:27:00,35.9,30.0,30.41,East,92,2.0,7.0,79,0.00,,,0.01,VWS V14.01,2013-03-10 14:27:00,
2013-03-10 10:32:00,35.8,30.5,30.41,ENE,72,3.0,7.0,81,0.00,,,0.01,VWS V14.01,2013-03-10 14:32:00,
2013-03-10 10:37:00,35.5,29.6,30.42,ESE,123,2.0,2.0,79,0.00,,,0.01,VWS V14.01,2013-03-10 14:37:00,
2013-03-10 10:42:00,34.9,29.7,30.42,East,99,2.0,5.0,81,0.00,,,0.01,VWS V14.01,2013-03-10 14:42:00,
2013-03-10 10:47:00,35.3,29.8,30.42,ESE,107,3.0,5.0,80,0.00,,,0.01,VWS V14.01,2013-03-10 14:47:00,
2013-03-10 10:52:00,35.8,29.9,30.41,ENE,59,2.0,5.0,79,0.00,,,0.01,VWS V14.01,2013-03-10 14:52:00,
2013-03-10 10:57:00,35.9,30.0,30.42,ENE,73,2.0,7.0,79,0.00,,,0.01,VWS V14.01,2013-03-10 14:57:00,
2013-03-10 11:02:00,35.9,30.0,30.41,ESE,117,7.0,7.0,79,0.00,,,0.01,VWS V14.01,2013-03-10 15:02:00,
2013-03-10 11:07:00,35.9,30.0,30.41,ESE,103,3.0,5.0,79,0.00,,,0.01,VWS V14.01,2013-03-10 15:07:00,
2013-03-10 11:12:00,36.0,30.1,30.41,NE,53,4.0,7.0,79,0.00,,,0.01,VWS V14.01,2013-03-10 15:12:00,
2013-03-10 11:17:00,35.8,29.9,30.41,East,100,1.0,7.0,79,0.00,,,0.01,VWS V14.01,2013-03-10 15:17:00,
2013-03-10 11:22:00,36.5,30.3,30.41,East,100,3.0,7.0,78,0.00,,,0.01,VWS V14.01,2013-03-10 15:22:00,
2013-03-10 11:27:00,36.5,30.0,30.41,ENE,61,3.0,8.0,77,0.00,,,0.01,VWS V14.01,2013-03-10 15:27:00,
2013-03-10 11:32:00,37.1,30.6,30.40,ESE,121,2.0,8.0,77,0.00,,,0.01,VWS V14.01,2013-03-10 15:32:00,
2013-03-10 11:37:00,37.4,30.2,30.40,SE,126,4.0,5.0,75,0.00,,,0.01,VWS V14.01,2013-03-10 15:37:00,
2013-03-10 11:42:00,37.4,30.2,30.40,ENE,65,3.0,5.0,75,0.00,,,0.01,VWS V14.01,2013-03-10 15:42:00,
2013-03-10 11:47:00,37.6,30.1,30.40,ESE,123,4.0,7.0,74,0.00,,,0.01,VWS V14.01,2013-03-10 15:47:00,
2013-03-10 11:52:00,38.1,30.2,30.40,NE,54,5.0,7.0,73,0.00,,,0.01,VWS V14.01,2013-03-10 15:52:00,
2013-03-10 11:57:00,38.6,30.4,30.40,ENE,59,4.0,7.0,72,0.00,,,0.01,VWS V14.01,2013-03-10 15:57:00,
2013-03-10 12:02:00,38.3,30.1,30.40,ESE,107,5.0,7.0,72,0.00,,,0.01,VWS V14.01,2013-03-10 16:02:00,
2013-03-10 12:07:00,38.2,29.6,30.39,East,92,2.0,7.0,71,0.00,,,0.01,VWS V14.01,2013-03-10 16:07:00,
2013-03-10 12:12:00,38.5,30.3,30.40,ENE,77,4.0,7.0,72,0.00,,,0.01,VWS V14.01,2013-03-10 16:12:00,
2013-03-10 12:17:00,38.8,30.2,30.39,NE,53,3.0,7.0,71,0.00,,,0.01,VWS V14.01,2013-03-10 16:17:00,
2013-03-10 12:22:00,38.8,30.2,30.39,ENE,74,0.0,7.0,71,0.00,,,0.01,VWS V14.01,2013-03-10 16:22:00,
2013-03-10 12:27:00,39.1,29.8,30.39,East,88,6.0,7.0,69,0.00,,,0.01,VWS V14.01,2013-03-10 16:27:00,
2013-03-10 12:32:00,38.7,29.1,30.39,East,96,3.0,9.0,68,0.00,,,0.01,VWS V14.01,2013-03-10 16:32:00,
2013-03-10 12:37:00,39.3,29.3,30.39,East,96,6.0,7.0,67,0.00,,,0.01,VWS V14.01,2013-03-10 16:37:00,
2013-03-10 12:42:00,39.1,29.5,30.39,ENE,67,3.0,7.0,68,0.00,,,0.01,VWS V14.01,2013-03-10 16:42:00,
2013-03-10 12:47:00,39.2,29.5,30.38,ESE,123,2.0,7.0,68,0.00,,,0.01,VWS V14.01,2013-03-10 16:47:00,
2013-03-10 12:52:00,39.0,29.4,30.39,SE,128,2.0,7.0,68,0.00,,,0.01,VWS V14.01,2013-03-10 16:52:00,
2013-03-10 12:57:00,39.5,29.8,30.39,East,97,5.0,7.0,68,0.00,,,0.01,VWS V14.01,2013-03-10 16:57:00,
2013-03-10 13:02:00,40.0,30.3,30.39,East,100,3.0,7.0,68,0.00,,,0.01,VWS V14.01,2013-03-10 17:02:00,
2013-03-10 13:07:00,40.1,30.0,30.39,ENE,76,2.0,4.0,67,0.00,,,0.01,VWS V14.01,2013-03-10 17:07:00,
2013-03-10 13:12:00,39.5,29.8,30.39,SE,138,3.0,6.0,68,0.00,,,0.01,VWS V14.01,2013-03-10 17:12:00,
2013-03-10 13:17:00,39.2,29.5,30.39,ESE,118,0.0,6.0,68,0.00,,,0.01,VWS V14.01,2013-03-10 17:17:00,
2013-03-10 13:22:00,39.8,29.4,30.39,East,99,5.0,6.0,66,0.00,,,0.01,VWS V14.01,2013-03-10 17:22:00,
2013-03-10 13:27:00,39.5,29.5,30.39,ENE,61,4.0,6.0,67,0.00,,,0.01,VWS V14.01,2013-03-10 17:27:00,
2013-03-10 13:32:00,39.5,29.1,30.38,ENE,77,3.0,6.0,66,0.00,,,0.01,VWS V14.01,2013-03-10 17:32:00,
2013-03-10 13:37:00,39.7,29.3,30.38,ESE,103,5.0,5.0,66,0.00,,,0.01,VWS V14.01,2013-03-10 17:37:00,
2013-03-10 13:42:00,39.7,29.3,30.38,SE,137,3.0,5.0,66,0.00,,,0.01,VWS V14.01,2013-03-10 17:42:00,
2013-03-10 13:47:00,39.7,29.3,30.37,ESE,107,5.0,5.0,66,0.00,,,0.01,VWS V14.01,2013-03-10 17:47:00,
2013-03-10 13:52:00,40.0,29.6,30.37,NNE,25,1.0,7.0,66,0.00,,,0.01,VWS V14.01,2013-03-10 17:52:00,
2013-03-10 13:57:00,40.0,29.6,30.37,SSE,148,2.0,7.0,66,0.00,,,0.01,VWS V14.01,2013-03-10 17:57:00,
2013-03-10 14:02:00,40.0,29.9,30.37,ESE,123,3.0,7.0,67,0.00,,,0.01,VWS V14.01,2013-03-10 18:02:00,
2013-03-10 14:07:00,40.1,29.7,30.37,SE,146,3.0,4.0,66,0.00,,,0.01,VWS V14.01,2013-03-10 18:07:00,
2013-03-10 14:12:00,40.5,30.0,30.37,East,95,3.0,5.0,66,0.00,,,0.01,VWS V14.01,2013-03-10 18:12:00,
2013-03-10 14:17:00,40.4,30.0,30.37,SSE,154,1.0,5.0,66,0.00,,,0.01,VWS V14.01,2013-03-10 18:17:00,
2013-03-10 14:22:00,40.9,30.1,30.37,SSE,153,0.0,5.0,65,0.00,,,0.01,VWS V14.01,2013-03-10 18:22:00,
2013-03-10 14:27:00,41.0,29.8,30.37,SE,141,2.0,5.0,64,0.00,,,0.01,VWS V14.01,2013-03-10 18:27:00,
2013-03-10 14:32:00,41.4,30.1,30.36,East,98,7.0,7.0,64,0.00,,,0.01,VWS V14.01,2013-03-10 18:32:00,
2013-03-10 14:36:00,41.4,30.1,30.36,ESE,102,4.0,6.0,64,0.00,,,0.01,VWS V14.01,2013-03-10 18:36:00,
2013-03-10 14:41:00,41.6,30.3,30.36,East,89,3.0,6.0,64,0.00,,,0.01,VWS V14.01,2013-03-10 18:41:00,
2013-03-10 14:46:00,41.5,29.9,30.35,SE,133,3.0,6.0,63,0.00,,,0.01,VWS V14.01,2013-03-10 18:46:00,
2013-03-10 14:51:00,41.8,30.1,30.35,ESE,109,4.0,6.0,63,0.00,,,0.01,VWS V14.01,2013-03-10 18:51:00,
2013-03-10 14:56:00,41.6,30.3,30.36,SE,128,3.0,6.0,64,0.00,,,0.01,VWS V14.01,2013-03-10 18:56:00,
2013-03-10 15:01:00,41.7,29.7,30.36,ESE,103,3.0,6.0,62,0.00,,,0.01,VWS V14.01,2013-03-10 19:01:00,
2013-03-10 15:06:00,41.8,29.8,30.36,ESE,123,0.0,2.0,62,0.00,,,0.01,VWS V14.01,2013-03-10 19:06:00,
2013-03-10 15:11:00,42.2,30.1,30.36,ESE,122,0.0,3.0,62,0.00,,,0.01,VWS V14.01,2013-03-10 19:11:00,
2013-03-10 15:16:00,42.0,29.5,30.35,ESE,103,2.0,3.0,61,0.00,,,0.01,VWS V14.01,2013-03-10 19:16:00,
2013-03-10 15:21:00,42.3,30.2,30.35,SE,144,2.0,4.0,62,0.00,,,0.01,VWS V14.01,2013-03-10 19:21:00,
2013-03-10 15:26:00,42.4,30.3,30.35,ESE,107,2.0,4.0,62,0.00,,,0.01,VWS V14.01,2013-03-10 19:26:00,
2013-03-10 15:31:00,42.6,30.5,30.35,NNE,26,2.0,4.0,62,0.00,,,0.01,VWS V14.01,2013-03-10 19:31:00,
2013-03-10 15:36:00,43.1,30.2,30.35,East,98,5.0,6.0,60,0.00,,,0.01,VWS V14.01,2013-03-10 19:36:00,
2013-03-10 15:41:00,42.9,30.0,30.35,SSE,150,2.0,6.0,60,0.00,,,0.01,VWS V14.01,2013-03-10 19:41:00,
2013-03-10 15:47:00,43.0,29.7,30.34,East,94,1.0,6.0,59,0.00,,,0.01,VWS V14.01,2013-03-10 19:47:00,
2013-03-10 15:52:00,43.2,29.9,30.35,SE,137,3.0,6.0,59,0.00,,,0.01,VWS V14.01,2013-03-10 19:52:00,
2013-03-10 15:57:00,43.4,30.0,30.35,ESE,107,0.0,6.0,59,0.00,,,0.01,VWS V14.01,2013-03-10 19:57:00,
2013-03-10 16:02:00,43.5,29.3,30.34,ESE,111,3.0,6.0,57,0.00,,,0.01,VWS V14.01,2013-03-10 20:02:00,
2013-03-10 16:07:00,43.5,29.3,30.35,SE,130,3.0,4.0,57,0.00,,,0.01,VWS V14.01,2013-03-10 20:07:00,
2013-03-10 16:12:00,43.3,29.5,30.35,ESE,118,2.0,5.0,58,0.00,,,0.01,VWS V14.01,2013-03-10 20:12:00,
2013-03-10 16:17:00,43.5,29.7,30.35,East,99,3.0,5.0,58,0.00,,,0.01,VWS V14.01,2013-03-10 20:17:00,
2013-03-10 16:22:00,43.6,29.8,30.34,SE,129,3.0,5.0,58,0.00,,,0.01,VWS V14.01,2013-03-10 20:22:00,
2013-03-10 16:27:00,43.5,29.7,30.34,SE,136,0.0,5.0,58,0.00,,,0.01,VWS V14.01,2013-03-10 20:27:00,
2013-03-10 16:32:00,43.7,29.9,30.34,ESE,105,3.0,5.0,58,0.00,,,0.01,VWS V14.01,2013-03-10 20:32:00,
2013-03-10 16:37:00,43.8,29.6,30.34,SE,145,0.0,0.0,57,0.00,,,0.01,VWS V14.01,2013-03-10 20:37:00,
2013-03-10 16:42:00,43.8,29.6,30.34,ESE,118,0.0,4.0,57,0.00,,,0.01,VWS V14.01,2013-03-10 20:42:00,
2013-03-10 16:47:00,43.7,29.5,30.34,ESE,121,2.0,5.0,57,0.00,,,0.01,VWS V14.01,2013-03-10 20:47:00,
2013-03-10 16:52:00,43.8,29.6,30.34,ESE,104,2.0,5.0,57,0.00,,,0.01,VWS V14.01,2013-03-10 20:52:00,
2013-03-10 16:57:00,44.0,28.9,30.34,SE,129,3.0,5.0,55,0.00,,,0.01,VWS V14.01,2013-03-10 20:57:00,
2013-03-10 17:02:00,44.3,29.2,30.34,ESE,113,0.0,5.0,55,0.00,,,0.01,VWS V14.01,2013-03-10 21:02:00,
2013-03-10 17:07:00,44.2,29.5,30.34,East,93,1.0,1.0,56,0.00,,,0.01,VWS V14.01,2013-03-10 21:07:00,
2013-03-10 17:12:00,43.9,29.7,30.34,East,94,1.0,3.0,57,0.00,,,0.01,VWS V14.01,2013-03-10 21:12:00,
2013-03-10 17:17:00,44.0,29.8,30.33,East,100,3.0,3.0,57,0.00,,,0.01,VWS V14.01,2013-03-10 21:17:00,
2013-03-10 17:22:00,43.7,29.5,30.33,ESE,105,1.0,5.0,57,0.00,,,0.01,VWS V14.01,2013-03-10 21:22:00,
2013-03-10 17:27:00,43.8,29.1,30.33,ESE,105,2.0,5.0,56,0.00,,,0.01,VWS V14.01,2013-03-10 21:27:00,
2013-03-10 17:32:00,43.9,29.7,30.33,East,100,1.0,5.0,57,0.00,,,0.01,VWS V14.01,2013-03-10 21:32:00,
2013-03-10 17:37:00,44.2,29.1,30.33,ESE,109,2.0,3.0,55,0.00,,,0.01,VWS V14.01,2013-03-10 21:37:00,
2013-03-10 17:42:00,44.0,29.3,30.33,ESE,109,2.0,3.0,56,0.00,,,0.01,VWS V14.01,2013-03-10 21:42:00,
2013-03-10 17:47:00,44.0,29.3,30.33,ESE,118,2.0,3.0,56,0.00,,,0.01,VWS V14.01,2013-03-10 21:47:00,
2013-03-10 17:52:00,44.0,29.3,30.32,ESE,123,2.0,4.0,56,0.00,,,0.01,VWS V14.01,2013-03-10 21:52:00,
2013-03-10 17:57:00,44.0,29.3,30.33,SE,136,2.0,4.0,56,0.00,,,0.01,VWS V14.01,2013-03-10 21:57:00,
2013-03-10 18:02:00,43.8,29.6,30.33,ESE,121,4.0,4.0,57,0.00,,,0.01,VWS V14.01,2013-03-10 22:02:00,
2013-03-10 18:07:00,43.5,29.3,30.33,East,94,3.0,3.0,57,0.00,,,0.01,VWS V14.01,2013-03-10 22:07:00,
2013-03-10 18:12:00,43.2,29.0,30.33,ESE,115,2.0,7.0,57,0.00,,,0.01,VWS V14.01,2013-03-10 22:12:00,
2013-03-10 18:17:00,43.0,29.2,30.33,ESE,115,2.0,7.0,58,0.00,,,0.01,VWS V14.01,2013-03-10 22:17:00,
2013-03-10 18:22:00,42.9,29.6,30.33,ESE,111,2.0,7.0,59,0.00,,,0.01,VWS V14.01,2013-03-10 22:22:00,
2013-03-10 18:27:00,42.5,29.6,30.33,ESE,115,1.0,7.0,60,0.00,,,0.01,VWS V14.01,2013-03-10 22:27:00,
2013-03-10 18:32:00,42.3,29.4,30.33,ESE,110,2.0,7.0,60,0.00,,,0.01,VWS V14.01,2013-03-10 22:32:00,
2013-03-10 18:37:00,42.1,29.6,30.33,SE,127,2.0,3.0,61,0.00,,,0.01,VWS V14.01,2013-03-10 22:37:00,
2013-03-10 18:42:00,42.0,29.5,30.33,SE,128,2.0,3.0,61,0.00,,,0.01,VWS V14.01,2013-03-10 22:42:00,
2013-03-10 18:47:00,42.0,29.5,30.33,SE,130,1.0,4.0,61,0.00,,,0.01,VWS V14.01,2013-03-10 22:47:00,
2013-03-10 18:52:00,41.9,29.5,30.33,SE,130,1.0,4.0,61,0.00,,,0.01,VWS V14.01,2013-03-10 22:52:00,
2013-03-10 18:57:00,41.8,29.4,30.33,SE,130,0.0,4.0,61,0.00,,,0.01,VWS V14.01,2013-03-10 22:57:00,
2013-03-10 19:02:00,41.7,29.3,30.34,SE,130,0.0,4.0,61,0.00,,,0.01,VWS V14.01,2013-03-10 23:02:00,
2013-03-10 19:07:00,41.9,29.5,30.34,SE,132,1.0,3.0,61,0.00,,,0.01,VWS V14.01,2013-03-10 23:07:00,
2013-03-10 19:12:00,41.8,29.4,30.34,SE,126,2.0,3.0,61,0.00,,,0.01,VWS V14.01,2013-03-10 23:12:00,
2013-03-10 19:17:00,41.9,29.5,30.33,SE,134,3.0,3.0,61,0.00,,,0.01,VWS V14.01,2013-03-10 23:17:00,
2013-03-10 19:22:00,41.6,29.2,30.33,SE,132,2.0,4.0,61,0.00,,,0.01,VWS V14.01,2013-03-10 23:22:00,
2013-03-10 19:27:00,41.5,29.1,30.33,SE,132,1.0,4.0,61,0.00,,,0.01,VWS V14.01,2013-03-10 23:27:00,
2013-03-10 19:32:00,41.5,29.1,30.33,SE,132,2.0,4.0,61,0.00,,,0.01,VWS V14.01,2013-03-10 23:32:00,
2013-03-10 19:37:00,41.5,29.1,30.33,SE,132,2.0,3.0,61,0.00,,,0.01,VWS V14.01,2013-03-10 23:37:00,
2013-03-10 19:42:00,41.4,29.4,30.34,ESE,105,2.0,3.0,62,0.00,,,0.01,VWS V14.01,2013-03-10 23:42:00,
2013-03-10 19:47:00,41.1,29.5,30.34,East,101,1.0,4.0,63,0.00,,,0.01,VWS V14.01,2013-03-10 23:47:00,
2013-03-10 19:52:00,40.8,29.6,30.34,East,99,3.0,5.0,64,0.00,,,0.01,VWS V14.01,2013-03-10 23:52:00,
2013-03-10 19:57:00,40.6,29.8,30.35,East,87,2.0,5.0,65,0.00,,,0.01,VWS V14.01,2013-03-10 23:57:00,
2013-03-10 20:02:00,40.5,29.7,30.35,East,87,1.0,5.0,65,0.00,,,0.01,VWS V14.01,2013-03-11 00:02:00,
2013-03-10 20:07:00,40.2,30.1,30.35,SE,128,2.0,4.0,67,0.00,,,0.01,VWS V14.01,2013-03-11 00:07:00,
2013-03-10 20:12:00,40.1,30.0,30.35,SE,128,2.0,4.0,67,0.00,,,0.01,VWS V14.01,2013-03-11 00:12:00,
2013-03-10 20:17:00,39.8,30.1,30.35,East,96,2.0,4.0,68,0.00,,,0.01,VWS V14.01,2013-03-11 00:17:00,
2013-03-10 20:22:00,39.8,30.1,30.35,East,97,2.0,4.0,68,0.00,,,0.01,VWS V14.01,2013-03-11 00:22:00,
2013-03-10 20:27:00,39.7,30.0,30.34,East,97,0.0,4.0,68,0.00,,,0.01,VWS V14.01,2013-03-11 00:27:00,
2013-03-10 20:32:00,39.6,30.3,30.35,East,97,2.0,4.0,69,0.00,,,0.01,VWS V14.01,2013-03-11 00:32:00,
2013-03-10 20:37:00,39.5,30.5,30.34,East,97,1.0,3.0,70,0.00,,,0.01,VWS V14.01,2013-03-11 00:37:00,
2013-03-10 20:42:00,39.4,30.4,30.34,East,97,2.0,3.0,70,0.00,,,0.01,VWS V14.01,2013-03-11 00:42:00,
2013-03-10 20:47:00,39.3,30.4,30.34,ESE,113,2.0,3.0,70,0.00,,,0.01,VWS V14.01,2013-03-11 00:47:00,
2013-03-10 20:52:00,38.9,30.7,30.33,ESE,121,2.0,4.0,72,0.00,,,0.01,VWS V14.01,2013-03-11 00:52:00,
2013-03-10 20:57:00,38.8,30.6,30.34,ESE,121,2.0,4.0,72,0.00,,,0.01,VWS V14.01,2013-03-11 00:57:00,
2013-03-10 21:02:00,38.6,30.4,30.34,ESE,121,1.0,4.0,72,0.00,,,0.01,VWS V14.01,2013-03-11 01:02:00,
2013-03-10 21:07:00,38.8,30.6,30.33,SSE,162,1.0,2.0,72,0.00,,,0.01,VWS V14.01,2013-03-11 01:07:00,
2013-03-10 21:12:00,39.1,31.9,30.33,South,176,2.0,4.0,75,0.00,,,0.01,VWS V14.01,2013-03-11 01:12:00,
2013-03-10 21:17:00,39.1,32.2,30.33,South,191,3.0,5.0,76,0.00,,,0.01,VWS V14.01,2013-03-11 01:17:00,
2013-03-10 21:22:00,38.8,32.2,30.33,SSW,202,1.0,5.0,77,0.00,,,0.01,VWS V14.01,2013-03-11 01:22:00,
2013-03-10 21:27:00,38.6,32.0,30.33,South,180,4.0,6.0,77,0.00,,,0.01,VWS V14.01,2013-03-11 01:27:00,
2013-03-10 21:32:00,38.3,32.0,30.33,SSW,209,0.0,6.0,78,0.00,,,0.01,VWS V14.01,2013-03-11 01:32:00,
2013-03-10 21:37:00,38.1,32.2,30.33,SSW,208,0.0,5.0,79,0.00,,,0.01,VWS V14.01,2013-03-11 01:37:00,
2013-03-10 21:42:00,37.9,32.0,30.34,SSW,208,0.0,5.0,79,0.00,,,0.01,VWS V14.01,2013-03-11 01:42:00,
2013-03-10 21:47:00,37.6,32.0,30.33,SSW,207,2.0,5.0,80,0.00,,,0.01,VWS V14.01,2013-03-11 01:47:00,
2013-03-10 21:52:00,37.5,31.9,30.34,SSW,192,5.0,5.0,80,0.00,,,0.01,VWS V14.01,2013-03-11 01:52:00,
2013-03-10 21:57:00,37.4,31.8,30.34,South,191,2.0,7.0,80,0.00,,,0.01,VWS V14.01,2013-03-11 01:57:00,
2013-03-10 22:02:00,37.3,31.7,30.33,South,178,7.0,7.0,80,0.00,,,0.01,VWS V14.01,2013-03-11 02:02:00,
2013-03-10 22:07:00,37.2,31.6,30.33,South,188,2.0,6.0,80,0.00,,,0.01,VWS V14.01,2013-03-11 02:07:00,
2013-03-10 22:12:00,37.0,31.7,30.33,South,191,2.0,6.0,81,0.00,,,0.01,VWS V14.01,2013-03-11 02:12:00,
2013-03-10 22:17:00,36.8,31.5,30.33,WSW,253,3.0,7.0,81,0.00,,,0.01,VWS V14.01,2013-03-11 02:17:00,
2013-03-10 22:22:00,36.6,31.6,30.33,WSW,240,0.0,7.0,82,0.00,,,0.01,VWS V14.01,2013-03-11 02:22:00,
2013-03-10 22:27:00,36.4,31.7,30.33,WSW,240,0.0,7.0,83,0.00,,,0.01,VWS V14.01,2013-03-11 02:27:00,
2013-03-10 22:32:00,36.4,31.7,30.33,WSW,240,0.0,7.0,83,0.00,,,0.01,VWS V14.01,2013-03-11 02:32:00,
2013-03-10 22:37:00,36.3,31.6,30.33,WSW,240,1.0,2.0,83,0.00,,,0.01,VWS V14.01,2013-03-11 02:37:00,
2013-03-10 22:42:00,36.0,31.4,30.33,WSW,240,0.0,2.0,83,0.00,,,0.01,VWS V14.01,2013-03-11 02:42:00,
2013-03-10 22:48:00,35.8,31.5,30.34,SW,229,1.0,2.0,84,0.00,,,0.01,VWS V14.01,2013-03-11 02:48:00,
2013-03-10 22:53:00,35.7,31.4,30.34,SW,225,2.0,6.0,84,0.00,,,0.01,VWS V14.01,2013-03-11 02:53:00,
2013-03-10 22:58:00,35.6,31.5,30.34,WSW,254,1.0,6.0,85,0.00,,,0.01,VWS V14.01,2013-03-11 02:58:00,
2013-03-10 23:03:00,35.5,31.5,30.34,WSW,254,4.0,6.0,85,0.00,,,0.01,VWS V14.01,2013-03-11 03:03:00,
2013-03-10 23:08:00,35.4,31.1,30.33,WSW,239,0.0,2.0,84,0.00,,,0.01,VWS V14.01,2013-03-11 03:08:00,
2013-03-10 23:12:00,35.2,31.1,30.33,WSW,238,0.0,3.0,85,0.00,,,0.01,VWS V14.01,2013-03-11 03:12:00,
2013-03-10 23:17:00,35.2,31.1,30.33,SSW,211,2.0,4.0,85,0.00,,,0.01,VWS V14.01,2013-03-11 03:17:00,
2013-03-10 23:22:00,35.0,31.0,30.33,SSW,199,4.0,5.0,85,0.00,,,0.01,VWS V14.01,2013-03-11 03:22:00,
2013-03-10 23:28:00,34.9,30.9,30.32,SSW,200,4.0,7.0,85,0.00,,,0.01,VWS V14.01,2013-03-11 03:28:00,
2013-03-10 23:32:00,34.7,31.0,30.32,SSW,207,0.0,7.0,86,0.00,,,0.01,VWS V14.01,2013-03-11 03:32:00,
2013-03-10 23:37:00,34.6,30.9,30.32,South,181,1.0,4.0,86,0.00,,,0.01,VWS V14.01,2013-03-11 03:37:00,
2013-03-10 23:42:00,34.4,30.6,30.32,SSW,212,2.0,5.0,86,0.00,,,0.01,VWS V14.01,2013-03-11 03:42:00,
2013-03-10 23:47:00,34.3,30.6,30.31,SSW,204,0.0,6.0,86,0.00,,,0.01,VWS V14.01,2013-03-11 03:47:00,
2013-03-10 23:52:00,34.2,30.5,30.31,SSW,209,1.0,6.0,86,0.00,,,0.01,VWS V14.01,2013-03-11 03:52:00,
2013-03-10 23:57:00,34.0,30.5,30.32,WSW,256,1.0,6.0,87,0.00,,,0.01,VWS V14.01,2013-03-11 03:57:00,